Preview of NWS' New Version of Forecast
This preview is not operational and should not be used for support decisions.

Regional Weather Roundup (RWR)

Issued by National Weather Service (NWS)

                            
000
ASUS46 KSTO 171915
RWRCA 

NORTHERN AND CENTRAL CA REGIONAL WEATHER ROUNDUP
NATIONAL WEATHER SERVICE SACRAMENTO CA 
1100 AM PST MON DEC 17 2018

NOTE: FAIR INDICATES FEW OR NO CLOUDS BELOW 12,000 FEET WITH NO
SIGNIFICANT WEATHER AND/OR OBSTRUCTIONS TO VISIBILITY.

CAZ001-003-172000-
NORTHWEST AREA
  
CITY           SKY/WX    TMP DP  RH WIND       PRES   REMARKS
CRESCENT CITY  CLOUDY    52  46  80 S16       30.14R                  
UKIAH          CLOUDY    49  45  86 CALM      30.24R                  
$$

CAZ006-505>513-172000-
BAY AREA
  
CITY           SKY/WX    TMP DP  RH WIND       PRES   REMARKS
SANTA ROSA     FOG       48  48 100 NW3       30.23R VSB 1            
SAN RAFAEL     N/A       51  MM  MM MISG
NAPA           PTSUNNY   53  51  93 SW6       30.23R FOG              
CONCORD        SUNNY     59  50  72 CALM      30.22R                  
OAKLAND CITY   N/A       55  MM  MM MISG
OAKLAND        MOSUNNY   57  53  86 SE5       30.24R                  
SAN FRAN CITY  N/A       55  MM  98 MISG
SAN FRAN ARPT  PTSUNNY   56  51  84 E5        30.22R                  
LIVERMORE      MOSUNNY   52  50  93 W5        30.22S                  
HAYWARD        MOSUNNY   59  51  75 S6        30.23R                  
REDWOOD CITY   N/A       55  MM  91 MISG
MOFFETT ARPT   SUNNY     59  52  77 VRB3      30.23S                  
SAN JOSE ARPT  MOSUNNY   57  50  77 CALM      30.22S                  
$$
CAZ034-037-514>518-172000-
CENTRAL COAST
  
CITY           SKY/WX    TMP DP  RH WIND       PRES   REMARKS
WATSONVILLE    SUNNY     57  51  80 CALM      30.23S                  
SALINAS        SUNNY     59  48  67 CALM      30.23S                  
MONTEREY       SUNNY     59  47  64 CALM      30.23S                  
SAN LUIS OBISP MOSUNNY   62  48  60 NE5       30.19F                  
SANTA MARIA    LGT RAIN  59  57  93 NW8G17    30.21F                  
$$
CAZ015-016-172000-
NORTHERN SACRAMENTO VALLEY
  
CITY           SKY/WX    TMP DP  RH WIND       PRES   REMARKS
REDDING        CLOUDY    50  48  93 NW3       30.22R                  
RED BLUFF      CLOUDY    53  48  83 S10       30.23R                  
OROVILLE       SUNNY     57  46  66 S5        30.22S                  
$$
CAZ016>018-172000-
SOUTHERN SACRAMENTO VALLEY
  
CITY           SKY/WX    TMP DP  RH WIND       PRES   REMARKS
AUBURN         SUNNY     54  41  62 CALM      30.20R                  
BEALE AFB      SUNNY     57  45  63 S5        30.20R                  
LINCOLN        FAIR      55  45  67 S6        30.21R                  
MARYSVILLE     SUNNY     56  47  71 SE6       30.22R                  
SAC INTL ARPT  MOSUNNY   56  49  77 S9        30.21S                  
MATHER AIRPORT NOT AVBL                                               
DOWNTOWN SAC   N/A       59  MM  MM MISG
SAC EXEC ARPT  SUNNY     56  48  74 S7        30.22S                  
VACAVILLE      SUNNY     57  49  74 E3        30.23R                  
$$
CAZ019>021-172000-
SAN JOAQUIN VALLEY
  
CITY           SKY/WX    TMP DP  RH WIND       PRES   REMARKS
STOCKTON       SUNNY     58  50  75 CALM      30.21F                  
MODESTO        PTSUNNY   56  50  80 CALM      30.22F                  
MERCED         PTSUNNY   55  51  86 W6        30.22F                  
LEMOORE        CLOUDY    54  50  86 NW15      30.24S                  
FRESNO         LGT RAIN  54  52  93 W5        30.23S FOG              
HANFORD        CLOUDY    56  53  90 NW6       30.24S                  
PORTERVILLE    LGT RAIN  54  52  93 CALM      30.23F FOG              
BAKERSFIELD    CLOUDY    63  48  58 N10       30.20F                  
$$
CAZ011-012-071-172000-
NORTHERN MOUNTAINS
  
CITY           SKY/WX    TMP DP  RH WIND       PRES   REMARKS
YREKA          PTSUNNY   41  39  93 CALM      30.14S                  
MOUNT SHASTA   PTSUNNY   41  37  86 VRB3      30.14F                  
ALTURAS        CLOUDY    38  36  92 W5        30.14S WCI  34          
$$
CAZ011-012-071-172000-
SIERRA NEVADA MTNS
  
CITY           SKY/WX    TMP DP  RH WIND       PRES   REMARKS
BLUE CANYON    SUNNY     37  31  78 S6        30.18S WCI  32          
TRUCKEE        SUNNY     37  27  65 CALM      30.15F                  
TAHOE VLY ARPT SUNNY     38  27  64 S14G23    30.14F WCI  30          
MAMMOTH LAKES  PTSUNNY   37  29  73 CALM      30.15S                  
$$